Nur fliegen ist schöner ....

Willkommen beim Flugservice Bautzen GmbH

Wir sind eine nach europäischen Richtlinien zugelassene Flugschule und lizenziertes Luftfahrtunternehmen. Bei uns können sie nicht nur Rundflüge über die Oberlausitz oder Sachsen buchen, sondern in unserer Flugschule selber das Fliegen erlernen. Erfahrene Fluglehrer stehen Ihnen dabei zur Seite.

Wir bieten Ihnen außerdem spezielle Flüge zur Vermessung oder Fotoflüge für Luftbildaufnahmen an. In Zusammenarbeit mit dem Fallschirmsportclub Dresden und dem Cottbuser Fallschirmsportclub setzen wir am Flugplatz Bautzen und Neuhausen Fallschirmspringer ab.
Schauen Sie sich in Ruhe bei uns um und wenn Sie Fragen haben oder weitere Informationen benötigen, scheuen Sie sich nicht Kontakt mit uns aufzunehmen.

Gutscheine für Rundflüge und Tandemsprünge können Sie ganz leicht auch online in unserem Shop erwerben.

Terminkalender

Letzter Monat Dezember 2020 Nächster Monat
Mo Di Mi Do Fr Sa So
week 49 1 2 3 4 5 6
week 50 7 8 9 10 11 12 13
week 51 14 15 16 17 18 19 20
week 52 21 22 23 24 25 26 27
week 53 28 29 30 31

Flugwetterinfo

[Quelle: ADDS]
METAR
EDDC 032220Z 14005KT 110V170 CAVOK M01/M05 Q0999 =
EDDC 031700Z 0318/0418 15012KT 9999 SCT040 BECMG 0400/0403 15015G25KT PROB30 TEMPO 0402/0408 BKN008
TAF
EDDC 031700Z 0318/0418 15012KT 9999 SCT040 BECMG 0400/0403 15015G25KT PROB30 TEMPO 0402/0408 BKN008 =
SR / SS: 06:47 / 14:56 UTC (EDAB Flugplatz Bautzen 2020-12-03)

Öffnungszeiten

des Flugplatzes Bautzen erfahren Sie hier:

flugplatz bautzen logo
Flugservice Bautzen GmbH, Kornmarkt 34, 02625 Bautzen  Telefon: +49 (3591) 211105, Telefax: +49 (3591) 274512, E-Mail:  flugservice(at)fsbautzen.de